Tracking 18032 objects as of 26-March-2017
HD Live streaming from Space Station
objects crossing your sky now

COSMOS 2251 DEB

Track COSMOS 2251 DEB now!
10-day predictions


NORAD ID: 35970
Int'l Code: 1993-036AVL
Perigee: 678.5 km
Apogee: 737.4 km
Inclination: 74.0 °
Period: 98.8 minutes
Semi major axis: 7078 km
RCS: 0.0106 m2 (small)
Launch date: June 16, 1993
Source: Commonwealth of Independent States (former USSR) (CIS)
Launch site: PLESETSK MISSILE AND SPACE COMPLEX (PKMTR)

Note: This is SATELLITE DEBRIS
Your satellite tracking list
Your tracking list is empty





NASA's NSSDC Master Catalog

Two Line Element Set (TLE):
1 35970U 93036AVL 17078.10634308 +.00000839 +00000-0 +18831-3 0  9997
2 35970 074.0420 231.6037 0041641 065.9156 294.6356 14.57639257400416
Source of the keplerian elements: AFSPC